Location: Wildlife_Club
(35.6000°N, 81.4330°W)
Time: 07:28:35
(UTC-04:00)

Iridium 56 - Visible Passes

Search period start: 25 August 2016 00:00
Search period end: 04 September 2016 00:00
Orbit: 776 x 779 km, 86.4° (Epoch: 24 August)

Date Brightness Start Highest point End Pass type
(mag) Time Alt. Az. Time Alt. Az. Time Alt. Az.
25 Aug 5.5 22:22:40 10° N 22:27:22 72° NNE 22:27:22 72° NNE visible
26 Aug 5.9 21:49:22 10° NNE 21:54:07 42° ENE 21:54:07 42° ENE visible
26 Aug 7.8 23:31:10 10° NW 23:34:36 18° W 23:34:36 18° W visible
27 Aug 6.7 21:16:34 10° NNE 21:20:38 23° E 21:20:53 22° E visible
27 Aug 6.9 22:56:41 10° NNW 23:01:22 34° W 23:01:22 34° W visible
28 Aug 7.4 20:45:01 10° NE 20:46:47 12° ENE 20:47:40 11° E visible
28 Aug 5.7 22:22:47 10° N 22:27:58 67° W 22:28:10 66° WSW visible
29 Aug 5.4 21:49:17 10° N 21:54:28 64° E 21:54:59 60° ESE visible
29 Aug 8.2 23:32:34 10° NW 23:34:31 12° WNW 23:35:28 12° W visible
30 Aug 6.2 21:16:09 10° NNE 21:20:50 33° E 21:21:49 30° ESE visible
30 Aug 7.4 22:57:15 10° NNW 23:01:19 23° W 23:02:19 22° W visible
31 Aug 7.0 20:43:38 10° NE 20:47:05 18° ENE 20:48:42 15° E visible
31 Aug 6.5 22:23:02 10° NNW 22:28:00 44° W 22:29:11 38° WSW visible
01 Sep 5.4 21:49:19 10° N 21:54:33 86° W 21:56:06 47° S visible
02 Sep 5.7 21:15:56 10° N 21:21:00 49° E 21:23:04 32° SE visible
02 Sep 8.1 22:58:09 10° NW 23:01:12 16° W 23:03:33 12° WSW visible
03 Sep 6.5 20:43:00 10° NNE 20:47:19 26° E 20:50:04 17° ESE visible
03 Sep 7.2 22:23:28 10° NNW 22:27:58 30° W 22:30:34 20° SW visible
